GFSFLT2_850_spd_078.txt.gz
Wind_Speed
18 14 11 13 15 17 15 12 9 9 10 12 9 8 6 4 5 3 2 7 15 20 17 13 12 12 15
14 11 14 14 14 13 11 10 10 10 11 11 10 7 6 5 5 4 4 6 8 11 13 14 18 20 19
14 12 12 9 11 11 10 11 10 10 10 10 10 10 10 9 10 10 9 11 12 13 14 14 15 15 16
12 10 9 9 9 9 9 11 11 10 10 11 10 10 11 12 13 13 15 13 14 16 19 20 19 20 20
10 9 9 10 10 11 11 9 12 10 8 10 10 10 12 12 12 13 14 16 18 18 17 18 19 20 19
9 10 11 10 10 10 11 8 7 9 8 9 10 10 11 13 14 15 14 15 15 16 17 18 18 19 18
8 8 10 10 11 9 9 9 8 9 8 5 6 6 8 9 8 9 10 12 14 16 18 19 19 20 20
7 8 8 9 9 8 8 7 6 7 6 5 5 5 6 9 7 7 7 7 7 9 11 13 14 15 15
6 7 7 7 8 8 7 5 4 6 7 6 6 7 8 7 6 6 6 7 7 8 9 10 12 11 11
6 6 6 6 7 6 5 5 5 5 5 8 10 10 5 5 3 9 9 10 11 11 11 12 13 14 14
8 8 7 7 6 6 7 7 7 8 12 11 11 13 10 11 8 11 10 9 9 11 13 14 15 17 17
8 9 9 10 8 8 9 11 12 12 12 14 16 14 14 16 15 12 12 13 13 13 14 14 15 16 17
9 9 9 9 11 11 12 12 13 12 13 13 14 14 15 17 20 20 19 14 12 8 10 15 15 16 17
10 10 10 10 10 12 12 13 12 11 11 12 11 13 15 16 19 20 18 18 18 16 17 16 17 18 18
11 11 11 12 11 12 12 13 14 13 12 12 11 12 13 17 20 20 18 17 15 16 18 19 18 17 16
12 12 12 13 13 13 14 15 15 14 14 13 14 16 18 18 18 17 16 17 15 16 17 21 24 19 16
14 14 14 14 14 14 15 16 16 16 15 15 16 17 20 23 23 18 18 15 20 23 23 22 26 25 22

GFSFLT2_850_spd_084.txt.gz
Wind_Speed
18 17 17 17 14 11 10 10 10 7 7 7 8 8 6 6 4 4 2 4 3 6 11 20 23 23 21
19 15 16 15 12 11 11 9 9 8 9 8 9 8 8 5 4 4 7 4 6 12 20 26 23 25 22
15 14 13 12 10 10 9 9 9 9 9 9 9 9 8 8 8 8 7 7 10 12 10 13 15 15 19
13 12 12 9 9 8 9 10 10 11 9 10 8 9 9 9 9 10 10 11 11 11 14 15 14 14 15
10 10 9 9 8 8 9 10 10 10 9 8 8 8 8 8 9 10 11 12 14 15 15 16 16 15 17
12 11 11 9 8 7 9 8 7 9 8 7 8 6 6 5 6 6 8 11 13 15 16 18 18 19 19
9 8 10 8 8 7 8 7 7 7 7 5 5 4 4 3 3 2 2 5 8 11 13 16 17 20 20
6 7 7 7 7 6 6 6 6 5 4 4 4 4 4 5 5 4 4 3 4 5 6 8 11 13 16
5 5 5 4 5 5 5 5 5 5 4 4 4 5 5 5 5 4 4 4 5 6 7 7 8 9 9
3 3 3 3 3 3 4 4 4 4 4 4 5 4 3 6 6 5 8 7 8 10 10 10 11 12 12
3 3 4 4 4 5 5 5 6 6 7 7 6 7 6 5 9 8 9 9 8 10 10 12 13 14 16
5 4 4 5 6 7 6 6 7 9 9 8 9 9 10 9 8 7 7 10 11 11 13 14 15 16 17
6 5 5 6 7 7 8 7 7 8 9 9 9 10 11 11 10 7 8 8 12 11 11 12 15 17 19
8 7 7 7 8 9 10 9 7 9 9 9 9 9 10 11 14 12 9 8 9 13 16 14 15 17 17
10 9 9 10 10 12 11 11 10 9 9 11 10 11 13 14 16 14 14 14 12 14 16 16 15 15 15
12 13 12 14 14 13 13 13 12 11 11 12 13 14 15 16 16 15 12 14 14 16 17 19 20 18 17
16 14 14 17 17 15 15 15 14 14 14 14 14 15 17 21 19 17 15 11 13 15 18 20 25 21 19

GFSFLT2_850_spd_087.txt.gz
Wind_Speed
18 15 15 16 19 19 14 13 12 10 8 8 9 9 8 6 6 5 4 6 9 4 9 14 18 23 22
22 20 19 22 19 16 13 11 11 11 9 10 10 9 8 5 6 5 6 2 3 7 11 15 17 21 19
21 20 19 18 16 13 12 11 11 11 10 11 9 9 8 7 7 7 7 7 6 6 12 16 18 19 22
15 15 16 17 13 11 11 11 11 10 11 11 10 9 8 9 9 9 10 10 10 13 11 10 10 11 12
12 14 13 13 10 11 11 11 11 10 10 10 10 9 8 8 9 10 10 11 12 14 15 14 13 13 14
12 12 11 11 11 11 11 10 10 9 10 10 9 7 7 6 5 6 8 10 12 14 15 16 16 15 14
11 10 10 10 10 10 9 9 9 9 9 8 7 6 5 5 3 3 3 5 8 11 13 15 17 18 19
9 8 8 9 9 8 8 7 7 7 7 6 7 6 5 5 5 5 4 4 4 5 7 8 11 13 14
6 6 6 6 6 6 6 6 5 6 6 6 7 6 6 7 6 6 6 5 4 5 6 6 7 7 9
4 3 3 3 4 4 4 4 5 4 6 7 6 6 4 7 7 7 7 7 8 9 9 10 11 11 11
4 4 4 4 4 4 5 5 6 7 6 7 7 7 7 7 7 9 10 10 10 10 11 12 12 13 13
6 5 5 5 5 5 6 7 8 9 10 10 12 11 11 11 11 9 11 10 12 13 14 14 14 15 15
7 7 7 7 6 6 7 7 9 11 11 10 10 11 12 10 9 8 10 11 12 12 16 16 14 15 16
10 10 9 8 8 8 8 10 10 12 12 12 12 12 11 10 12 8 9 8 8 12 16 16 17 17 17
12 12 11 11 11 11 14 13 12 12 13 14 14 13 14 14 16 13 12 14 13 15 17 17 16 19 19
16 16 15 15 13 14 14 16 16 14 14 15 16 16 17 16 16 15 12 11 13 17 18 19 19 18 19
19 17 18 17 17 15 15 18 18 16 16 16 17 17 18 21 18 19 17 12 12 13 18 21 24 23 21

GFSFLT2_850_spd_090.txt.gz
Wind_Speed
18 20 20 22 16 16 18 21 16 14 12 11 10 10 10 8 8 6 5 6 11 7 1 10 14 19 21
20 18 15 16 19 19 20 17 14 13 12 12 11 11 10 7 7 7 5 2 4 5 8 12 11 16 18
22 24 22 20 19 18 17 13 14 12 12 12 11 12 8 8 7 8 7 7 5 7 16 16 18 18 14
14 16 17 17 17 18 14 12 13 12 12 12 11 11 10 8 7 7 9 9 10 10 9 10 15 16 17
14 15 16 16 16 13 12 12 12 12 11 11 11 10 9 9 7 7 9 10 11 13 13 12 11 11 12
14 14 13 13 12 11 11 11 11 10 11 10 9 8 7 6 6 5 6 9 11 12 14 15 13 12 12
13 12 12 11 11 11 10 10 11 10 8 8 8 7 6 5 4 2 2 5 8 10 12 14 16 16 16
11 10 9 9 9 9 10 9 8 8 7 5 6 6 6 6 4 4 4 4 4 6 7 9 10 12 13
7 6 7 8 8 7 7 7 6 6 6 5 5 6 6 6 6 6 5 5 5 4 5 6 6 7 8
4 4 4 4 4 4 4 5 4 3 5 6 5 4 3 7 8 7 7 7 6 7 7 8 8 9 10
4 4 4 4 4 3 3 4 4 4 5 5 6 7 7 6 5 7 8 10 10 10 11 10 11 11 10
7 6 6 5 4 4 4 4 4 4 6 9 11 10 10 11 10 9 11 12 12 12 12 13 13 13 13
8 8 8 8 6 6 5 5 6 6 6 9 12 11 10 10 10 9 11 12 13 13 14 14 15 14 12
10 11 10 9 9 9 9 9 10 10 11 12 11 11 12 11 11 9 11 10 8 11 14 14 15 16 17
12 13 13 13 13 13 12 12 11 11 12 13 13 13 13 14 14 11 12 14 14 17 18 17 14 17 19
14 14 14 14 15 15 15 14 12 11 12 15 17 17 17 15 15 14 12 10 12 14 16 19 18 16 18
16 16 16 16 18 18 17 17 16 13 13 16 17 18 19 19 17 17 17 12 12 11 14 18 22 22 19